K5RNB Weather Reports


Display with metric or nautical units.
time (UTC)temp
F
wind
direction
speed
MPH
gust
MPH
rain 1hr
in
rain 24hr
in
rain mn
in
humidity
%
barometer
mb
20260902110437 80 112 3.0 3.0 0.00 0.00 0.00 75 1013.5
20260902105936 80 111 2.0 3.0 0.00 0.00 0.00 76 1013.5
20260902105437 79 148 0.0 2.0 0.00 0.00 0.00 76 1013.4
20260902104937 79 148 0.0 1.0 0.00 0.00 0.00 76 1013.4
20260902104436 80 148 0.0 1.0 0.00 0.00 0.00 76 1013.3
20260902103937 80 148 0.0 1.0 0.00 0.00 0.00 76 1013.4
20260902103437 80 148 0.0 1.0 0.00 0.00 0.00 76 1013.3
20260902102938 80 148 0.0 1.0 0.00 0.00 0.00 76 1013.4
20260902102437 80 148 0.0 1.0 0.00 0.00 0.00 76 1013.3
20260902101937 80 148 0.0 1.0 0.00 0.00 0.00 76 1013.4
20260902101437 80 148 0.0 1.0 0.00 0.00 0.00 76 1013.4
20260902100937 79 148 0.0 1.0 0.00 0.00 0.00 78 1013.3
20260902095937 79 148 0.0 1.0 0.00 0.00 0.00 77 1013.4
20260902095437 80 148 0.0 1.0 0.00 0.00 0.00 76 1013.4
20260902094937 80 148 0.0 1.0 0.00 0.00 0.00 76 1013.3
20260902094437 81 148 0.0 1.0 0.00 0.00 0.00 75 1013.3
20260902093437 81 148 0.0 1.0 0.00 0.00 0.00 75 1013.4
20260902092937 81 148 0.0 1.0 0.00 0.00 0.00 75 1013.3
20260902092437 81 148 0.0 1.0 0.00 0.00 0.00 75 1013.4
20260902091938 81 148 0.0 0.0 0.00 0.00 0.00 75 1013.4
20260902091437 81 148 0.0 0.0 0.00 0.00 0.00 75 1013.3
20260902090937 81 148 0.0 0.0 0.00 0.00 0.00 75 1013.4
20260902090438 81 148 0.0 2.0 0.00 0.00 0.00 74 1013.4
20260902085938 81 148 0.0 2.0 0.00 0.00 0.00 74 1013.4
20260902085437 81 87 0.0 2.0 0.00 0.00 0.00 74 1013.3
20260902084938 82 159 1.0 2.0 0.00 0.00 0.00 74 1013.3
20260902084437 82 159 1.0 3.0 0.00 0.00 0.00 73 1013.3
20260902083937 82 159 1.0 5.0 0.00 0.00 0.00 72 1013.4
20260902083438 82 156 3.0 5.0 0.00 0.00 0.00 72 1013.4
20260902082938 82 130 3.0 6.0 0.00 0.00 0.00 72 1013.5
20260902081438 83 165 2.0 5.0 0.00 0.00 0.00 71 1013.4
20260902080938 83 163 3.0 6.0 0.00 0.00 0.00 70 1013.4
20260902080438 83 144 3.0 7.0 0.00 0.00 0.00 70 1013.4
20260902075938 83 137 3.0 7.0 0.00 0.00 0.00 69 1013.4
20260902075438 84 157 5.0 7.0 0.00 0.00 0.00 69 1013.4
20260902074938 84 156 5.0 8.0 0.00 0.00 0.00 69 1013.4
20260902074438 84 165 5.0 9.0 0.00 0.00 0.00 68 1013.4
20260902073938 84 150 5.0 9.0 0.00 0.00 0.00 68 1013.4
20260902073438 84 157 5.0 8.0 0.00 0.00 0.00 67 1013.4
20260902072938 84 163 5.0 8.0 0.00 0.00 0.00 67 1013.4
20260902072438 85 156 5.0 9.0 0.00 0.00 0.00 67 1013.5
20260902071938 85 147 6.0 10.0 0.00 0.00 0.00 66 1013.3
20260902071439 85 158 7.0 10.0 0.00 0.00 0.00 66 1013.4
20260902070939 85 152 6.0 10.0 0.00 0.00 0.00 65 1013.3
20260902070439 85 154 6.0 10.0 0.00 0.00 0.00 65 1013.4
20260902065938 86 164 7.0 14.0 0.00 0.00 0.00 64 1013.3
20260902065438 86 159 9.0 14.0 0.00 0.00 0.00 64 1013.4
20260902064939 86 156 7.0 18.0 0.00 0.00 0.00 64 1013.3
20260902064438 86 157 11.0 18.0 0.00 0.00 0.00 63 1013.3
20260902063940 86 152 12.0 18.0 0.00 0.00 0.00 63 1013.2
20260902062939 86 165 12.0 16.0 0.00 0.00 0.00 64 1013.2
20260902062438 86 158 10.0 16.0 0.00 0.00 0.00 64 1013.3
20260902061938 86 165 8.0 16.0 0.00 0.00 0.00 64 1013.1
20260902060939 86 164 6.0 10.0 0.00 0.00 0.00 63 1013.0
20260902060439 87 156 6.0 12.0 0.00 0.00 0.00 63 1013.0
20260902055938 87 151 6.0 12.0 0.00 0.00 0.00 62 1012.9
20260902055439 87 155 7.0 12.0 0.00 0.00 0.00 62 1012.9
20260902054939 88 160 6.0 14.0 0.00 0.00 0.00 60 1012.8
20260902054438 88 164 7.0 14.0 0.00 0.00 0.00 59 1012.8
20260902053939 88 163 9.0 14.0 0.00 0.00 0.00 58 1012.7
20260902053439 89 153 8.0 13.0 0.00 0.00 0.00 57 1012.8
20260902052939 89 146 6.0 13.0 0.00 0.00 0.00 56 1012.7
20260902050939 89 88 4.0 9.0 0.00 0.00 0.00 56 1012.6
20260902050439 89 106 6.0 9.0 0.00 0.00 0.00 56 1012.6
20260902045939 89 103 2.0 8.0 0.00 0.00 0.00 56 1012.5
20260902045439 88 86 2.0 3.0 0.00 0.00 0.00 58 1012.6
20260902044939 88 83 3.0 3.0 0.00 0.00 0.00 58 1012.6
20260902044439 87 83 2.0 3.0 0.00 0.00 0.00 59 1012.6
20260902043939 87 82 0.0 1.0 0.00 0.00 0.00 62 1012.5
20260902043439 86 82 0.0 1.0 0.00 0.00 0.00 62 1012.6
20260902042939 86 82 0.0 1.0 0.00 0.00 0.00 63 1012.5
20260902042439 86 82 0.0 1.0 0.00 0.00 0.00 65 1012.6
20260902041941 85 82 0.0 1.0 0.00 0.00 0.00 65 1012.5
20260902041440 85 82 0.0 1.0 0.00 0.00 0.00 65 1012.7
20260902040939 85 82 0.0 1.0 0.00 0.00 0.00 66 1012.6
20260902040439 84 82 0.0 0.0 0.00 0.00 0.00 64 1012.7
20260902035940 85 82 0.0 1.0 0.00 0.00 0.00 63 1012.5
20260902034939 85 82 0.0 1.0 0.00 0.00 0.00 62 1012.6
20260902034440 86 82 0.0 1.0 0.00 0.00 0.00 60 1012.7
20260902033939 86 82 0.0 1.0 0.00 0.00 0.00 61 1012.5
20260902033439 86 82 0.0 1.0 0.00 0.00 0.00 60 1012.6
20260902032940 86 82 0.0 1.0 0.00 0.00 0.00 59 1012.5
20260902031939 87 82 0.0 1.0 0.00 0.00 0.00 59 1012.4
20260902030940 88 82 0.0 1.0 0.00 0.00 0.00 56 1012.3
20260902030439 89 82 0.0 1.0 0.00 0.00 0.00 56 1012.3
20260902025940 90 82 0.0 1.0 0.00 0.00 0.00 54 1012.1
20260902025440 90 82 0.0 3.0 0.00 0.00 0.00 54 1012.1
20260902024939 90 60 0.0 3.0 0.00 0.00 0.00 53 1012.0
20260902024440 90 121 0.0 3.0 0.00 0.00 0.00 52 1012.0
20260902023940 91 114 0.0 3.0 0.00 0.00 0.00 52 1011.8
20260902022940 91 132 3.0 3.0 0.00 0.00 0.00 51 1011.6
20260902022440 91 122 3.0 3.0 0.00 0.00 0.00 50 1011.6
20260902021940 91 118 3.0 3.0 0.00 0.00 0.00 50 1011.5
20260902021442 92 110 3.0 3.0 0.00 0.00 0.00 50 1011.5
20260902020940 92 109 3.0 3.0 0.00 0.00 0.00 50 1011.4
20260902015440 93 122 3.0 3.0 0.00 0.00 0.00 48 1011.1
20260902014940 93 109 3.0 3.0 0.00 0.00 0.00 48 1011.0
20260902014440 93 101 2.0 3.0 0.00 0.00 0.00 48 1011.0
20260902013940 93 104 3.0 3.0 0.00 0.00 0.00 48 1010.9
20260902013440 93 104 2.0 3.0 0.00 0.00 0.00 47 1010.9
20260902012940 93 107 2.0 6.0 0.00 0.00 0.00 47 1010.8
20260902012440 93 110 3.0 6.0 0.00 0.00 0.00 47 1010.9
20260902011940 94 128 3.0 6.0 0.00 0.00 0.00 47 1010.8
20260902011442 94 117 3.0 6.0 0.00 0.00 0.00 47 1010.8
20260902010940 94 115 4.0 6.0 0.00 0.00 0.00 46 1010.7
20260902010441 94 128 3.0 6.0 0.00 0.00 0.00 46 1010.8
20260902005940 94 122 3.0 5.0 0.00 0.00 0.00 46 1010.7
20260902005441 94 145 3.0 5.0 0.00 0.00 0.00 46 1010.8
20260902004941 95 143 3.0 6.0 0.00 0.00 0.00 45 1010.7
20260902004440 95 143 3.0 7.0 0.00 0.00 0.00 45 1010.8
20260902003941 95 145 5.0 7.0 0.00 0.00 0.00 44 1010.7
20260902003440 96 146 5.0 6.0 0.00 0.00 0.00 44 1010.8
20260902002940 97 154 3.0 8.0 0.00 0.00 0.00 42 1010.8
20260902001940 99 137 5.0 8.0 0.00 0.00 0.00 40 1010.9
20260902001441 100 111 5.0 8.0 0.00 0.00 0.00 39 1010.9
20260902000444 100 95 2.0 9.0 0.00 0.00 0.00 39 1011.0
20260901235940 100 99 6.0 9.0 0.00 0.00 0.00 38 1010.9
20260901235441 100 100 4.0 8.0 0.00 0.00 0.00 38 1011.1
20260901234941 100 94 2.0 10.0 0.00 0.00 0.00 39 1011.0
20260901234441 99 114 7.0 12.0 0.00 0.00 0.00 39 1011.1
20260901233940 100 127 7.0 12.0 0.00 0.00 0.00 39 1011.1
20260901233441 100 113 3.0 9.0 0.00 0.00 0.00 39 1011.2
20260901232941 99 103 5.0 12.0 0.00 0.00 0.00 38 1011.2
20260901231941 101 144 7.0 12.0 0.00 0.00 0.00 37 1011.2
20260901231441 101 94 4.0 12.0 0.00 0.00 0.00 38 1011.2
20260901230441 101 123 5.0 10.0 0.00 0.00 0.00 37 1011.2
20260901225941 101 110 6.0 10.0 0.00 0.00 0.00 37 1011.2
20260901224941 101 130 6.0 13.0 0.00 0.00 0.00 38 1011.2
20260901224441 101 149 10.0 15.0 0.00 0.00 0.00 36 1011.3
20260901223941 102 94 5.0 15.0 0.00 0.00 0.00 36 1011.3
20260901223442 103 88 5.0 10.0 0.00 0.00 0.00 35 1011.2
20260901222941 103 92 5.0 10.0 0.00 0.00 0.00 35 1011.3
20260901222441 102 85 6.0 10.0 0.00 0.00 0.00 36 1011.3
20260901221941 101 107 6.0 14.0 0.00 0.00 0.00 37 1011.2
20260901220943 101 101 8.0 16.0 0.00 0.00 0.00 38 1011.3
20260901220442 101 187 2.0 13.0 0.00 0.00 0.00 37 1011.3
20260901215941 101 131 5.0 13.0 0.00 0.00 0.00 38 1011.5
20260901215441 102 114 4.0 10.0 0.00 0.00 0.00 36 1011.4
20260901214942 101 117 6.0 14.0 0.00 0.00 0.00 37 1011.6
20260901214441 101 95 7.0 15.0 0.00 0.00 0.00 37 1011.7
20260901213941 101 108 8.0 15.0 0.00 0.00 0.00 38 1011.5
20260901213441 102 158 7.0 13.0 0.00 0.00 0.00 37 1011.5
20260901212943 103 88 6.0 13.0 0.00 0.00 0.00 36 1011.6
20260901211942 102 100 6.0 12.0 0.00 0.00 0.00 37 1011.7
20260901211441 102 87 6.0 12.0 0.00 0.00 0.00 38 1011.8
20260901210442 103 91 6.0 12.0 0.00 0.00 0.00 37 1011.9
20260901205941 102 96 4.0 12.0 0.00 0.00 0.00 38 1012.0
20260901204942 101 116 7.0 12.0 0.00 0.00 0.00 39 1012.1
20260901204441 101 85 6.0 13.0 0.00 0.00 0.00 40 1012.0
20260901203942 101 94 8.0 13.0 0.00 0.00 0.00 40 1012.2
20260901202942 100 181 4.0 15.0 0.00 0.00 0.00 42 1012.2
20260901202442 100 165 9.0 15.0 0.00 0.00 0.00 41 1012.3
20260901201942 102 182 7.0 14.0 0.00 0.00 0.00 40 1012.1
20260901201444 101 89 3.0 9.0 0.00 0.00 0.00 40 1012.5
20260901200942 101 87 5.0 9.0 0.00 0.00 0.00 41 1012.5
20260901195943 99 96 3.0 10.0 0.00 0.00 0.00 43 1012.7
20260901195442 99 113 3.0 12.0 0.00 0.00 0.00 43 1012.7
20260901194442 99 127 5.0 12.0 0.00 0.00 0.00 43 1012.8
20260901193442 99 133 3.0 18.0 0.00 0.00 0.00 44 1012.9
20260901192942 99 177 6.0 12.0 0.00 0.00 0.00 43 1012.9
20260901192442 99 117 3.0 10.0 0.00 0.00 0.00 44 1013.0
20260901191442 97 185 8.0 20.0 0.00 0.00 0.00 45 1013.2
20260901190943 96 181 10.0 18.0 0.00 0.00 0.00 46 1013.2
20260901190442 96 200 11.0 17.0 0.00 0.00 0.00 46 1013.3
20260901185942 97 170 7.0 16.0 0.00 0.00 0.00 45 1013.4
20260901185442 98 137 3.0 16.0 0.00 0.00 0.00 44 1013.5
20260901184942 98 95 7.0 16.0 0.00 0.00 0.00 44 1013.6
20260901184443 98 100 5.0 16.0 0.00 0.00 0.00 44 1013.6
20260901183943 98 103 4.0 17.0 0.00 0.00 0.00 44 1013.8
20260901183443 97 133 9.0 17.0 0.00 0.00 0.00 44 1013.9
20260901182942 97 123 2.0 12.0 0.00 0.00 0.00 45 1013.9
20260901181943 95 153 5.0 20.0 0.00 0.00 0.00 48 1014.1
20260901181443 95 127 11.0 20.0 0.00 0.00 0.00 48 1014.1
20260901180943 95 106 5.0 15.0 0.00 0.00 0.00 48 1014.2
20260901180443 96 195 9.0 14.0 0.00 0.00 0.00 47 1014.3
20260901175943 97 205 7.0 12.0 0.00 0.00 0.00 46 1014.3
20260901174943 96 90 3.0 16.0 0.00 0.00 0.00 48 1014.4
20260901174443 96 137 7.0 16.0 0.00 0.00 0.00 47 1014.6
20260901173943 95 160 5.0 16.0 0.00 0.00 0.00 48 1014.6
20260901173443 95 148 9.0 13.0 0.00 0.00 0.00 48 1014.8
20260901172943 95 204 3.0 13.0 0.00 0.00 0.00 49 1014.7
20260901171943 95 214 6.0 10.0 0.00 0.00 0.00 49 1014.9
20260901171443 96 153 5.0 10.0 0.00 0.00 0.00 49 1015.0
20260901170943 96 116 5.0 9.0 0.00 0.00 0.00 48 1015.0
20260901165443 95 108 5.0 10.0 0.00 0.00 0.00 52 1015.2
20260901164943 94 131 4.0 10.0 0.00 0.00 0.00 52 1015.3
20260901164444 94 189 6.0 14.0 0.00 0.00 0.00 52 1015.4
20260901163943 94 170 7.0 15.0 0.00 0.00 0.00 52 1015.4
20260901163444 93 87 5.0 15.0 0.00 0.00 0.00 54 1015.3
20260901162943 94 175 7.0 13.0 0.00 0.00 0.00 53 1015.3
20260901162444 94 109 2.0 13.0 0.00 0.00 0.00 54 1015.3
20260901161943 93 138 1.0 13.0 0.00 0.00 0.00 54 1015.4
20260901161444 93 160 9.0 12.0 0.00 0.00 0.00 54 1015.3
20260901160943 93 152 5.0 8.0 0.00 0.00 0.00 56 1015.4
20260901160444 92 212 3.0 10.0 0.00 0.00 0.00 56 1015.4
20260901155445 93 196 5.0 9.0 0.00 0.00 0.00 55 1015.4
20260901154944 93 79 2.0 8.0 0.00 0.00 0.00 56 1015.4
20260901154443 92 186 4.0 8.0 0.00 0.00 0.00 57 1015.3
20260901153443 91 103 2.0 8.0 0.00 0.00 0.00 58 1015.3
20260901152944 91 167 4.0 8.0 0.00 0.00 0.00 58 1015.2
20260901152444 91 109 1.0 8.0 0.00 0.00 0.00 60 1015.3
20260901151944 91 141 5.0 12.0 0.00 0.00 0.00 59 1015.3
20260901151444 90 99 3.0 12.0 0.00 0.00 0.00 62 1015.4
20260901150944 89 131 3.0 12.0 0.00 0.00 0.00 62 1015.3
20260901150444 89 113 6.0 12.0 0.00 0.00 0.00 63 1015.4
20260901145444 88 130 5.0 10.0 0.00 0.00 0.00 64 1015.5
20260901144445 88 135 5.0 9.0 0.00 0.00 0.00 64 1015.5
20260901143944 87 147 3.0 9.0 0.00 0.00 0.00 65 1015.4
20260901142944 87 152 5.0 9.0 0.00 0.00 0.00 65 1015.6
20260901142444 87 152 5.0 8.0 0.00 0.00 0.00 65 1015.5
20260901141944 87 144 6.0 10.0 0.00 0.00 0.00 65 1015.6
20260901140944 87 144 5.0 9.0 0.00 0.00 0.00 66 1015.7
20260901140445 87 199 5.0 7.0 0.00 0.00 0.00 66 1015.5
20260901135946 86 126 5.0 8.0 0.00 0.00 0.00 68 1015.6
20260901135445 85 147 5.0 12.0 0.00 0.00 0.00 69 1015.5
20260901134944 85 120 5.0 12.0 0.00 0.00 0.00 70 1015.5
20260901133945 84 166 5.0 6.0 0.00 0.00 0.00 71 1015.4
20260901133446 84 155 3.0 6.0 0.00 0.00 0.00 72 1015.5
20260901132945 83 124 2.0 5.0 0.00 0.00 0.00 72 1015.4
20260901132444 83 135 1.0 3.0 0.00 0.00 0.00 73 1015.4
20260901131946 82 170 0.0 3.0 0.00 0.00 0.00 73 1015.3
20260901131444 82 170 1.0 3.0 0.00 0.00 0.00 73 1015.3
20260901130945 81 63 0.0 1.0 0.00 0.00 0.00 74 1015.2
20260901130444 81 179 0.0 1.0 0.00 0.00 0.00 74 1015.2
20260901125945 81 179 0.0 1.0 0.00 0.00 0.00 74 1015.2
20260901125444 80 179 0.0 1.0 0.00 0.00 0.00 76 1015.1
20260901124945 80 179 0.0 1.0 0.00 0.00 0.00 74 1015.1
20260901124444 80 179 0.0 1.0 0.00 0.00 0.00 74 1015.0
20260901123945 80 179 0.0 1.0 0.00 0.00 0.00 75 1015.1
20260901122945 79 146 0.0 1.0 0.00 0.00 0.00 75 1014.8
20260901121945 78 161 0.0 0.0 0.00 0.00 0.00 76 1014.7
20260901121445 78 165 0.0 0.0 0.00 0.00 0.00 76 1014.7
20260901120946 78 165 0.0 0.0 0.00 0.00 0.00 76 1014.5
20260901120445 79 165 0.0 2.0 0.00 0.00 0.00 76 1014.6
20260901115944 79 165 0.0 3.0 0.00 0.00 0.00 75 1014.5
20260901114945 79 163 0.0 2.0 0.00 0.00 0.00 75 1014.4
20260901114445 79 163 1.0 2.0 0.00 0.00 0.00 74 1014.4
20260901113945 79 163 1.0 2.0 0.00 0.00 0.00 74 1014.5
20260901113445 79 163 1.0 3.0 0.00 0.00 0.00 74 1014.4
20260901112945 80 163 1.0 3.0 0.00 0.00 0.00 74 1014.4